This is the latest recevied weather packets stored in our database for station/object NK7E-1. If no packets are shown the sender has not sent any weather packets the latest 10 day(s).
| Time | Temp. | Humidity | Pressure | Rain* | Wind** | Luminosity | Snow |
|---|---|---|---|---|---|---|---|
| 1777469398 | 15° C | 31% | 1016.9 hPa | 0 mm | - | - | - |
| 1777468798 | 15° C | 32% | 1016.9 hPa | 0 mm | - | - | - |
| 1777468198 | 15° C | 31% | 1016.8 hPa | 0 mm | - | - | - |
| 1777467598 | 15.56° C | 30% | 1016.8 hPa | 0 mm | - | - | - |
| 1777466998 | 15.56° C | 30% | 1016.7 hPa | 0 mm | - | - | - |
| 1777466397 | 15.56° C | 30% | 1016.5 hPa | 0 mm | - | - | - |
| 1777465798 | 16.11° C | 30% | 1016.4 hPa | 0 mm | - | - | - |
| 1777465198 | 16.11° C | 28% | 1016.4 hPa | 0 mm | - | - | - |
| 1777464598 | 16.11° C | 30% | 1016.5 hPa | 0 mm | - | - | - |
| 1777463998 | 16.11° C | 29% | 1016.4 hPa | 0 mm | - | - | - |
| 1777463397 | 16.67° C | 29% | 1016.5 hPa | 0 mm | - | - | - |
| 1777462797 | 16.67° C | 27% | 1016.6 hPa | 0 mm | - | - | - |
| 1777462198 | 17.22° C | 26% | 1016.7 hPa | 0 mm | - | - | - |
| 1777461597 | 17.22° C | 26% | 1016.7 hPa | 0 mm | - | - | - |
| 1777460998 | 18.33° C | 25% | 1016.7 hPa | 0 mm | - | - | - |
| 1777460399 | 18.33° C | 24% | 1016.7 hPa | 0 mm | - | - | - |
| 1777459797 | 18.33° C | 25% | 1016.9 hPa | 0 mm | - | - | - |
| 1777459198 | 18.33° C | 25% | 1016.7 hPa | 0 mm | - | - | - |
| 1777458597 | 18.33° C | 25% | 1016.5 hPa | 0 mm | - | - | - |
| 1777457998 | 18.33° C | 24% | 1016.5 hPa | 0 mm | - | - | - |
| 1777457397 | 18.89° C | 25% | 1016.5 hPa | 0 mm | - | - | - |
| 1777456798 | 18.89° C | 25% | 1016.4 hPa | 0 mm | - | - | - |
| 1777456198 | 18.89° C | 25% | 1016.6 hPa | 0 mm | - | - | - |
| 1777455599 | 19.44° C | 24% | 1016.6 hPa | 0 mm | - | - | - |
| 1777454997 | 19.44° C | 24% | 1016.7 hPa | 0 mm | - | - | - |
* Rain latest hour (hover to see other rain measurements)
** Current wind speed in m/s (hover to see current wind gust speed)